Weather observations for the past three days for
Salinas, Salinas Municipal Airport
Imperial (Metric)
Date Time (pdt) Wind (mph) Vis. (mi.) Weather Sky Cond. Temperature (ºF) Relative Humidity Wind Chill (°F) Heat Index (°F) Pressure Precipitation (in)
Air Dwpt 6 hour altimeter (in) sea level (mb) 1 hr 3 hr 6 hr
Max. Min.
20 02:53 NW 8 8.00 Overcast OVC006 57.9 55 90% 29.95 1015.2
20 01:53 N 10 8.00 A Few Clouds FEW007 59 55 87% 29.96 1015.4
20 00:53 N 12 9.00 Fair CLR 60.1 55 84% 29.96 1015.6
19 23:53 N 10 9.00 Fair CLR 61 54 78% 29.98 1015.9
19 22:53 N 13 9.00 Fair CLR 61 55 73.9 61 81% 29.98 1016.0
19 21:53 N 13 9.00 Fair CLR 62.1 54 75% 29.97 1015.7
19 20:53 NW 13 9.00 Fair CLR 64 54 70% 29.96 1015.3
19 19:53 NW 13 8.00 Fair CLR 66 54 65% 29.95 1014.9
19 18:53 NW 16 9.00 Fair CLR 69.1 54 59% 29.93 1014.3
19 17:53 NW 16 9.00 Fair CLR 72 55 55% 29.92 1013.9
19 16:53 NW 16 10.00 Fair CLR 73.9 55 78.1 71.1 52% 29.93 1014.3
19 15:53 NW 14 10.00 Fair CLR 73 55 53% 29.95 1015.1
19 14:53 NW 15 10.00 Fair CLR 73.9 55 52% 29.96 1015.5
19 13:53 NW 14 10.00 Fair CLR 75 55 50% 78 29.97 1015.7
19 12:53 W 12 10.00 Fair CLR 75.9 57 52% 78 29.98 1016.0
19 11:53 NW 8 10.00 Fair CLR 75.9 57 52% 78 29.98 1016.2
19 10:53 Calm 10.00 Fair CLR 71.1 55 71.1 54 57% 30 1016.7
19 09:53 Calm 9.00 A Few Clouds FEW007 63 55.9 78% 30.02 1017.3
19 08:53 E 3 9.00 Overcast OVC004 57 54 90% 30.03 1017.6
19 07:53 SE 5 2.00 Fog/Mist OVC002 55 54 96% 30.03 1017.7
19 06:53 SW 3 0.50 Fog OVC002 54 54 100% 30.02 1017.3
19 05:53 Calm 4.00 Fog/Mist OVC003 55 53.1 93% 30.01 1017.0
19 04:53 Calm 6.00 Fog/Mist OVC003 55 55 57 55 100% 30.01 1017.0
19 03:53 NW 5 10.00 Overcast OVC005 55.9 54 93% 30.01 1017.0
19 02:53 NW 7 9.00 Overcast OVC004 57 55 93% 30.01 1017.1
19 01:53 NW 7 9.00 Overcast OVC006 57 54 90% 30.01 1017.2
19 00:53 N 9 4.00 Fog/Mist OVC003 55.9 54 93% 30.03 1017.7
18 23:53 NW 8 10.00 Overcast OVC004 57 54 90% 30.03 1017.7
18 22:53 NW 10 7.00 Overcast OVC004 57 54 66 57 90% 30.04 1018.0
18 21:53 NW 9 10.00 Fair CLR 59 54 83% 30.03 1017.9
18 20:53 NW 12 10.00 Fair CLR 59 54 83% 30.03 1017.7
18 19:53 NW 13 9.00 A Few Clouds FEW007 59 54 83% 30.01 1017.2
18 18:53 NW 16 9.00 Fair CLR 62.1 54 75% 30 1016.8
18 17:53 NW 13 10.00 Fair CLR 63 55 76% 30 1016.6
18 16:53 NW 14 10.00 Fair CLR 66 55 70 64.9 68% 30 1016.8
18 15:53 NW 15 10.00 Fair CLR 66 55 68% 30 1016.8
18 14:53 NW 16 10.00 Fair CLR 68 55 63% 30 1016.9
18 13:53 NW 15 10.00 Fair CLR 70 55.9 61% 30.01 1017.0
18 12:53 NW 14 10.00 Fair CLR 69.1 55.9 63% 30.01 1017.2
18 11:53 NW 12 10.00 Fair CLR 68 55.9 65% 30.01 1017.1
18 10:53 W 8 10.00 Fair CLR 66.9 55.9 66.9 55 68% 30.01 1017.2
18 09:53 NW 6 10.00 Partly Cloudy SCT009 63 55 76% 30.02 1017.5
18 08:53 Calm 8.00 Overcast OVC006 57.9 54 87% 30.02 1017.5
18 07:53 Calm 6.00 Fog/Mist OVC003 55.9 54 93% 30.01 1017.1
18 06:53 Calm 2.00 Fog/Mist OVC003 55 54 96% 29.99 1016.5
18 05:53 SW 3 9.00 Overcast OVC003 55.9 54 93% 30 1016.7
18 04:53 Vrbl 3 4.00 Fog/Mist OVC003 55.9 55 57.9 55 97% 29.99 1016.4
18 03:53 W 6 2.00 Fog/Mist OVC002 55.9 54 93% 29.98 1016.1
18 02:53 NW 6 6.00 Fog/Mist OVC003 55.9 54 93% 29.99 1016.3
18 01:53 NW 6 8.00 Overcast OVC003 55.9 55 97% 30 1016.6
18 00:53 NW 7 7.00 Overcast OVC003 55.9 55 97% 30 1016.7
17 23:53 NW 9 10.00 Overcast OVC004 57 54 90% 30 1016.6
17 22:53 NW 10 10.00 Overcast OVC004 57.9 55 69.1 57 90% 29.99 1016.6
17 21:53 NW 13 8.00 Mostly Cloudy BKN005 57.9 55 90% 30 1016.6
17 20:53 NW 10 10.00 Fair CLR 60.1 55 84% 29.99 1016.5
17 19:53 NW 15 10.00 Fair CLR 63 55 76% 29.98 1016.0
17 18:53 NW 14 10.00 Fair CLR 64.9 55 70% 29.97 1015.9
17 17:53 NW 14 10.00 Fair CLR 66.9 55.9 68% 29.98 1015.9
17 16:53 NW 15 10.00 Fair CLR 69.1 55.9 75 66.9 63% 29.98 1016.2
17 15:53 NW 16 10.00 Fair CLR 70 55 59% 30 1016.7
17 14:53 W 14 10.00 Fair CLR 71.1 55.9 59% 30.01 1017.1
17 13:53 W 15 10.00 Fair CLR 72 55 55% 30.01 1017.2
17 12:53 NW 12 10.00 Fair CLR 73 55.9 55% 30.02 1017.6
17 11:53 Vrbl 6 10.00 Fair CLR 73 54 51% 30.02 1017.5
17 10:53 Calm 10.00 Fair CLR 66.9 54 66.9 54 63% 30.04 1018.0
17 09:53 Calm 10.00 Partly Cloudy SCT009 61 53.1 75% 30.05 1018.5
17 08:53 Calm 9.00 Overcast OVC008 57 52 83% 30.05 1018.4
17 05:53 S 6 10.00 Overcast OVC011 54 50 87% 30.02 1017.4
17 04:53 W 5 10.00 Overcast OVC013 57 52 60.1 57 83% 30.01 1017.2
17 03:53 Calm 10.00 Overcast OVC012 57.9 52 81% 30.01 1017.1
Date Time (pdt) Wind (mph) Vis. (mi.) Weather Sky Cond. Air Dwpt Max. Min. Relative Humidity Wind Chill (°F) Heat Index (°F) altimeter (in) sea level (mb) 1 hr 3 hr 6 hr
6 hour
Temperature (ºF) Pressure Precipitation (in)